Stations météo

réclame
Mon MeteoGroup
Kinloss, Grande-Bretagne (3066): Température de l'air & dewpoint: 18.01.2018 09:00:00 - 24.01.2018 09:00:00 (GMT)Kinloss, Grande-Bretagne (3066): Vitesse du vent & gusts: 18.01.2018 09:00:00 - 24.01.2018 09:00:00 (GMT)Kinloss, Grande-Bretagne (3066): Direction du vent: 18.01.2018 09:00:00 - 24.01.2018 09:00:00 (GMT)Kinloss, Grande-Bretagne (3066): reduced air pressure: 18.01.2018 09:00:00 - 24.01.2018 09:00:00 (GMT)Kinloss, Grande-Bretagne (3066): visibility: 18.01.2018 09:00:00 - 24.01.2018 09:00:00 (GMT)Kinloss, Grande-Bretagne (3066): Ensoleillement: 18.01.2018 09:00:00 - 24.01.2018 09:00:00 (GMT)Kinloss, Grande-Bretagne (3066): Quantités de précipitations: 18.01.2018 09:00:00 - 24.01.2018 09:00:00 (GMT)
Date & Time tt [°C] td [°C] ff [km/h] ff [knt] fx [km/h] fx [knt] dd ppp [hPa] vv [km] sd [min] rr [mm]
24.01.2018 09:00:00 5,3 2,0 35 19 78 42 SSW 974,3 75 0 0,6
24.01.2018 08:00:00 6,7 2,7 35 19 81 44 SW 974,5 45 0 0,0
24.01.2018 07:00:00 6,4 4,2 18 10 54 29 SW 975,2 75 0 2,2
24.01.2018 06:00:00 7,7 4,9 13 7 - - SSE 976,3 27 0 0,0
24.01.2018 05:00:00 5,9 3,2 21 11 - - E 979,7 75 0 0,0
24.01.2018 04:00:00 5,4 3,2 21 11 - - E 983,4 70 0 0,2
24.01.2018 03:00:00 6,4 2,9 16 9 - - SSE 987,8 25 0 0,2
24.01.2018 02:00:00 6,3 1,6 9 5 - - S 989,6 40 0 0,0
24.01.2018 01:00:00 5,6 1,9 16 9 - - SSW 992,3 60 0 0,0
24.01.2018 00:00:00 5,5 1,6 16 9 - - S 994,2 70 - 0,0
23.01.2018 23:00:00 5,1 1,1 13 7 - - S 994,7 50 0 0,0
23.01.2018 22:00:00 4,9 1,4 18 10 - - SSW 994,7 65 0 0,0
23.01.2018 21:00:00 5,7 2,1 29 16 - - SW 994,6 55 0 0,0
23.01.2018 20:00:00 6,3 2,3 28 15 - - SW 993,9 55 0 0,0
23.01.2018 19:00:00 6,7 2,2 29 16 48 26 SW 993,5 60 0 0,0
23.01.2018 18:00:00 7,5 3,2 28 15 - - SSW 992,4 55 0 0,0
23.01.2018 17:00:00 7,5 3,1 18 10 46 25 SSW 992,5 50 0 0,0
23.01.2018 16:00:00 8,7 3,6 24 13 - - SSW 992,8 55 42 0,0
23.01.2018 15:00:00 8,9 4,6 26 14 - - SW 992,8 55 18 0,0
23.01.2018 14:00:00 9,4 6,0 18 10 52 28 WSW 993,1 65 60 0,0
23.01.2018 13:00:00 10,3 6,4 29 16 54 29 SW 992,3 75 36 0,0
23.01.2018 12:00:00 9,7 6,5 24 13 - - SSW 991,5 75 12 0,0
23.01.2018 11:00:00 9,0 6,3 16 9 - - SW 992,6 75 0 0,0
23.01.2018 10:00:00 8,4 5,9 13 7 - - S 993,4 70 0 0,4
23.01.2018 09:00:00 8,0 6,3 18 10 - - S 994,8 11 0 3,0
23.01.2018 08:00:00 8,6 4,9 11 6 - - SSW 996,1 75 0 0,0
23.01.2018 07:00:00 8,1 4,5 15 8 - - SSW 996,0 75 0 0,0
23.01.2018 06:00:00 7,7 3,8 9 5 - - W 997,4 75 0 0,0
23.01.2018 05:00:00 8,1 3,8 5 3 - - SSW 998,4 75 0 0,0
23.01.2018 04:00:00 8,5 4,0 29 16 46 25 S 999,1 65 0 0,0
23.01.2018 03:00:00 8,3 3,5 22 12 48 26 S 1001,1 70 0 0,0
23.01.2018 02:00:00 8,0 4,0 24 13 - - S - 10 - 0,0
23.01.2018 01:00:00 7,9 3,7 21 11 48 26 S 1002,5 75 0 0,0
23.01.2018 00:00:00 7,4 3,3 15 8 - - S 1002,9 65 - 0,0
22.01.2018 23:00:00 7,1 2,8 11 6 - - SSW 1003,4 50 0 0,0
22.01.2018 22:00:00 6,8 2,8 11 6 - - SSW 1004,1 35 0 0,0
22.01.2018 21:00:00 6,9 2,4 18 10 - - SSW 1004,3 35 0 0,0
22.01.2018 20:00:00 7,0 3,1 29 16 - - SW 1004,5 40 0 0,0
22.01.2018 19:00:00 6,4 2,8 9 5 - - SSW 1004,2 35 0 0,0
22.01.2018 18:00:00 6,8 3,5 15 8 - - SSW 1004,0 30 0 0,0
22.01.2018 17:00:00 6,3 2,2 22 12 - - SW 1003,2 30 0 0,0
22.01.2018 16:00:00 7,1 2,6 11 6 48 26 SW 1002,9 30 12 0,0
22.01.2018 15:00:00 7,6 2,7 41 22 55 30 WSW 1001,2 35 0 0,0
22.01.2018 14:00:00 7,1 3,7 24 13 - - WSW 1001,2 28 0 0,0
22.01.2018 13:00:00 7,5 3,4 29 16 46 25 SW 1000,3 40 12 0,0
22.01.2018 12:00:00 6,9 3,4 29 16 - - WSW 999,2 45 30 0,0
22.01.2018 11:00:00 7,3 3,4 26 14 - - SW 998,8 45 18 0,0
22.01.2018 10:00:00 6,5 3,1 24 13 - - SW 998,4 45 0 0,0
22.01.2018 09:00:00 5,7 2,7 18 10 - - SW 997,6 55 0 0,0
22.01.2018 08:00:00 5,6 2,8 18 10 - - SW 997,1 45 0 0,0
22.01.2018 07:00:00 5,6 2,6 18 10 - - SSW 996,6 50 0 0,0
22.01.2018 06:00:00 5,8 2,4 16 9 - - SW 996,4 45 0 0,0
22.01.2018 05:00:00 5,6 2,4 22 12 - - SW 995,9 40 0 0,0
22.01.2018 04:00:00 5,5 2,5 15 8 - - SSW 995,7 30 0 0,0
22.01.2018 03:00:00 5,7 2,6 21 11 - - SSW 995,2 35 0 0,0
22.01.2018 02:00:00 5,1 2,3 21 11 - - SW 994,9 45 0 0,0
22.01.2018 01:00:00 5,7 2,8 26 14 - - SW 994,6 40 0 0,0
22.01.2018 00:00:00 5,9 2,8 24 13 - - SW 994,4 45 - 0,0
21.01.2018 23:00:00 5,1 2,5 16 9 - - SSW 994,5 - 0 0,0
21.01.2018 22:00:00 4,1 1,3 18 10 - - SSW 994,4 19 0 0,0
21.01.2018 21:00:00 4,2 0,5 24 13 - - SSW 993,8 75 0 0,0
21.01.2018 20:00:00 4,1 -0,1 21 11 - - S 994,3 75 0 0,0
21.01.2018 19:00:00 2,9 0,0 11 6 - - S 994,8 70 0 0,2
21.01.2018 18:00:00 1,8 -0,3 18 10 46 25 SSE 995,7 10 0 0,4
21.01.2018 17:00:00 1,9 -1,2 22 12 50 27 SSE 996,8 4,4 0 0,0
21.01.2018 16:00:00 1,5 -1,2 24 13 50 27 SSE 997,8 75 0 0,0
21.01.2018 15:00:00 3,5 -4,5 21 11 46 25 S 999,9 75 0 0,0
21.01.2018 14:00:00 3,3 -3,7 24 13 - - SSE 1001,2 70 0 0,0
21.01.2018 13:00:00 3,1 -3,9 26 14 48 26 SSE 1003,1 75 0 0,0
21.01.2018 12:00:00 2,1 -3,1 5 3 - - E 1004,7 70 0 0,0
21.01.2018 11:00:00 0,8 -2,9 11 6 - - E 1006,2 70 0 0,0
21.01.2018 10:00:00 0,8 -3,4 9 5 - - E 1007,8 - 0 0,0
21.01.2018 09:00:00 -2,0 -4,5 15 8 - - ESE 1008,7 70 0 0,0
21.01.2018 08:00:00 -7,1 -8,0 4 2 - - ESE 1009,1 30 0 0,0
21.01.2018 07:00:00 -6,3 -7,1 4 2 - - ESE 1009,2 75 0 0,0
21.01.2018 06:00:00 -5,5 -7,7 0 0 - - N 1010,0 70 0 0,0
21.01.2018 05:00:00 -3,6 -5,2 11 6 - - WSW 1010,8 75 0 0,0
21.01.2018 04:00:00 -3,2 -4,4 11 6 - - WSW 1010,5 75 0 0,0
21.01.2018 03:00:00 -2,9 -4,4 11 6 - - SW 1010,6 75 0 0,0
21.01.2018 02:00:00 -3,6 -4,8 9 5 - - SW 1010,5 60 0 0,0
21.01.2018 01:00:00 -3,8 -5,1 9 5 - - SW 1010,2 55 0 0,0
21.01.2018 00:00:00 -2,9 -4,2 9 5 - - SW 1009,8 60 - 0,0
20.01.2018 23:00:00 -1,7 -3,5 15 8 - - SW 1009,3 75 0 0,0
20.01.2018 22:00:00 -1,8 -3,8 13 7 - - SW 1008,5 60 0 0,0
20.01.2018 21:00:00 -1,0 -3,1 11 6 - - SW 1008,1 70 0 0,0
20.01.2018 20:00:00 -0,3 -2,7 18 10 - - SW 1007,0 70 0 0,0
20.01.2018 19:00:00 -0,7 -2,6 16 9 - - WSW 1006,3 70 0 0,0
20.01.2018 18:00:00 -1,2 -3,0 11 6 - - WSW 1005,1 75 0 0,0
20.01.2018 17:00:00 -0,3 -2,4 13 7 - - WSW 1003,7 70 0 0,0
20.01.2018 16:00:00 1,3 -1,9 13 7 - - WSW 1002,7 65 54 0,0
20.01.2018 15:00:00 1,8 -1,7 11 6 - - SW 1001,7 60 60 0,0
20.01.2018 14:00:00 2,1 -2,0 11 6 - - SW 1000,7 60 60 0,0
20.01.2018 13:00:00 2,2 -1,9 13 7 - - WSW 999,9 65 60 0,0
20.01.2018 12:00:00 1,1 -2,6 9 5 - - SW 999,5 55 60 0,0
20.01.2018 11:00:00 -0,3 -3,2 11 6 - - SW 999,1 60 60 0,0
20.01.2018 10:00:00 -1,3 -3,9 16 9 - - SW 998,7 40 30 0,0
20.01.2018 09:00:00 -1,5 -3,7 15 8 - - SW 998,0 70 0 0,0
20.01.2018 08:00:00 -2,2 -4,0 11 6 - - SW 997,2 75 0 0,0
20.01.2018 07:00:00 -1,8 -3,5 11 6 - - SW 996,9 75 0 0,0
20.01.2018 06:00:00 -1,6 -3,6 11 6 - - SSW 996,7 - 0 0,0
20.01.2018 05:00:00 -0,8 -2,7 11 6 - - SSW 996,3 75 0 0,0
20.01.2018 04:00:00 -0,7 -2,3 15 8 - - SSW 996,5 - 0 0,0
20.01.2018 03:00:00 -0,2 -2,4 11 6 - - SW 996,6 75 0 0,0
20.01.2018 02:00:00 -1,1 -3,5 8 4 - - SSW 996,5 70 0 0,0
20.01.2018 01:00:00 -0,9 -3,0 8 4 - - SSW 996,5 70 0 0,0
20.01.2018 00:00:00 -0,3 -2,9 11 6 - - SW 996,3 70 - 0,0
19.01.2018 23:00:00 -0,8 -3,4 13 7 - - SW 996,4 65 0 0,0
19.01.2018 22:00:00 -0,8 -3,8 16 9 - - SW 996,4 75 0 0,0
19.01.2018 21:00:00 0,1 -3,3 16 9 - - SSW 996,4 70 0 0,0
19.01.2018 20:00:00 0,5 -2,3 28 15 - - SW 996,3 70 0 0,0
19.01.2018 19:00:00 0,1 -2,0 15 8 - - SW 996,2 75 0 0,0
19.01.2018 18:00:00 0,5 -2,5 21 11 - - SW 995,9 75 0 0,0
19.01.2018 17:00:00 0,6 -2,9 16 9 - - SW 995,7 75 0 0,0
19.01.2018 16:00:00 0,7 -2,2 15 8 - - SW 995,7 70 0 0,0
19.01.2018 15:00:00 1,8 -1,6 16 9 - - SW 995,6 75 36 0,0
19.01.2018 14:00:00 2,5 -1,4 22 12 - - SW 995,4 65 54 0,0
19.01.2018 13:00:00 1,9 -1,5 13 7 - - SW 995,5 75 18 0,0
19.01.2018 12:00:00 1,8 -2,0 18 10 - - SW 995,6 75 36 0,0
19.01.2018 11:00:00 1,7 -2,7 18 10 - - SW 995,6 75 48 0,0
19.01.2018 10:00:00 0,6 -2,9 18 10 - - SW 995,3 - 24 0,0
19.01.2018 09:00:00 0,1 -3,3 22 12 - - SW 995,5 65 0 0,0
19.01.2018 08:00:00 0,2 -2,7 21 11 - - SW 995,2 75 0 0,0
19.01.2018 07:00:00 0,9 -1,4 16 9 - - SW 995,5 70 0 0,0
19.01.2018 06:00:00 0,6 -2,6 13 7 - - SSW 995,7 75 0 0,0
19.01.2018 05:00:00 -2,5 -5,0 5 3 - - SSW 995,4 75 0 0,0
19.01.2018 04:00:00 -1,2 -3,2 2 1 - - SW 995,5 75 0 0,0
19.01.2018 03:00:00 0,3 -1,6 13 7 - - SSW 995,7 75 0 0,0
19.01.2018 02:00:00 0,9 -1,4 24 13 - - SW 995,9 75 0 0,0
19.01.2018 01:00:00 -0,1 -2,2 11 6 - - SSW 996,0 75 0 0,0
19.01.2018 00:00:00 0,8 -1,5 8 4 - - S 995,7 70 - 0,0
18.01.2018 23:00:00 1,2 -0,8 18 10 - - SW 995,8 - 0 0,0
18.01.2018 22:00:00 0,7 -2,2 11 6 - - SSW 996,0 75 0 0,0
18.01.2018 21:00:00 0,4 -2,5 16 9 - - SSW 996,0 70 0 0,0
18.01.2018 20:00:00 0,1 -2,5 15 8 - - SSW 995,7 70 0 0,0
18.01.2018 19:00:00 -0,6 -2,6 8 4 - - S 995,4 60 0 0,0
18.01.2018 18:00:00 0,0 -2,2 9 5 - - SSW 995,2 70 0 0,0
18.01.2018 17:00:00 1,3 -1,2 18 10 - - SW 994,8 75 0 0,0
18.01.2018 16:00:00 2,0 -0,9 15 8 - - SW 994,0 70 48 0,0
18.01.2018 15:00:00 2,6 -0,4 22 12 - - SW 993,6 70 48 0,0
18.01.2018 14:00:00 3,4 -0,4 21 11 - - WSW 993,2 60 60 0,0
18.01.2018 13:00:00 3,1 -0,4 22 12 - - WSW 992,8 50 60 0,0
18.01.2018 12:00:00 2,9 -0,5 18 10 - - SW 992,9 65 18 0,0
18.01.2018 11:00:00 2,0 -1,1 16 9 - - SW 992,4 60 24 0,0
18.01.2018 10:00:00 0,9 -1,5 15 8 - - SW 992,0 60 0 0,0
18.01.2018 09:00:00 0,1 -1,4 11 6 - - WSW 991,5 60 0 0,0

tt = Température de l'air
td = dewpoint
ff = Vitesse du vent
fx = gusts
dd = Direction du vent
ppp = reduced air pressure
vv = visibility
sd = Ensoleillement
rr = Quantités de précipitations

stations d'obs. à proximité